Regional Weather Roundup
Issued by NWS Nashville, TN

Home | Current Version | Previous Version | Text Only | Print | Product List | Glossary On
Versions: 1 2 3 4 5 6 7 8 9 10 11 12 13 14 15 16 17 18 19 20 21 22 23 24 25 26 27 28 29 30 31 32 33 34 35 36 37 38 39 40 41 42 43 44 45 46 47 48 49 50
000
ASUS44 KOHX 070410
RWROHX
MIDDLE TENNESSEE HOURLY WEATHER ROUNDUP
NATIONAL WEATHER SERVICE NASHVILLE TN
1100 PM CDT WED MAY 06 2015

NOTE: "FAIR" INDICATES FEW OR NO CLOUDS BELOW 12,000 FEET WITH
NO SIGNIFICANT WEATHER AND/OR OBSTRUCTIONS TO VISIBILITY.

* THESE REPORTS ARE NOT UNDER NWS QUALITY CONTROL AND MAY NOT
  REPORT WEATHER SUCH AS PRECIPITATION AND FOG.


TNZ005>011-023>034-057-059-062>066-078-080-070500
...NORTHERN MIDDLE TENNESSEE...

CITY           SKY/WX    TMP DP  RH WIND       PRES   REMARKS
CLARKSVILLE    CLEAR     64  58  80 CALM      30.09R
CROSSVILLE     PTCLDY    63  52  67 SW5       30.17S
LIVINGSTON     CLEAR     68  58  70 W3        30.14
NASHVILLE      CLEAR     68  58  70 S3        30.11S
PORTLAND       CLEAR     63  57  82 S3        30.10S
ROCKWOOD       CLOUDY    67  56  67 NE5       30.16R
SMYRNA         CLEAR     63  57  80 CALM      30.12R
SPARTA         CLEAR     61  59  94 CALM      30.13S
$$
TNZ056-058-060-061-075>077-079-093>097-070500
...SOUTHERN MIDDLE TENNESSEE...

CITY           SKY/WX    TMP DP  RH WIND       PRES   REMARKS
COLUMBIA       CLEAR     61  55  82 CALM      30.10S
LEWISBURG      CLEAR     57  53  86 CALM      30.11S
MCMINNVILLE    CLEAR     61  57  88 MISG      30.14S
SHELBYVILLE    CLEAR     61  55  82 E3        30.13S
TULLAHOMA      CLEAR     59  52  77 CALM      30.15S
WINCHESTER     CLEAR     61  54  77 CALM      30.14S
$$


...KEY TO REMARKS...
VSB - VISIBILITY IN MILES
WCI - WIND CHILL INDEX
HX  - HEAT INDEX




USA.gov is the U.S. government's official web portal to all federal, state and local government web resources and services.